P/2024 R2 ( PanSTARRS )

Japanese version
Home page
Updated on March 23, 2025

---------------------------------------------------------------------

* Profile

Discovery Date September 3, 2024
Magnitude 20.7 mag
Discoverer Pan-STARRS 2 telescope (Haleakala)

* Pictures

* Orbital Elements

Epoch 2025 May 5.0 TT = JDT 2460800.5
T 2024 Oct. 1.81647 TT                                  Pike
q   2.3033553            (2000.0)            P               Q
n   0.17632915     Peri.  203.95435     +0.80201615     -0.59440396
a   3.1495848      Node   193.02520     +0.58145046     +0.79946068
e   0.2686797      Incl.   15.11544     +0.13669477     +0.08687084
P   5.59
From 46 observations 2024 Aug. 9-Oct. 31, mean residual 0".6.

* Magnitudes Graph

        m1 = 15.2 + 5 log d + 10.0 log r

---------------------------------------------------------------------

The orbital elements are published on M.P.E.C. 2025-C143.
The magnitudes graphs are made with Comet for Windows.

---------------------------------------------------------------------

Copyright(C) Seiichi Yoshida (comet@aerith.net). All rights reserved.